When you browse on this site, cookies collect data to enhance your experience and personalize the content and advertising you see.
Visit our Privacy Policy to learn more. By continuing to use the site, you agree to this use of cookies and data.
  • In Latvia
  • List of Countries
  • For 7 days
  • Water Temperature
  • Satellite Maps
  • Weather Map
  • Weather Widgets
  • user-avatar
    Login

    Hourly Weather Lubango

    Today, 21 January, Monday

    Time Temperature Precipitation Wind Pressure Humidity
    00:00 +15°C° 0 mm 0 mps 609 mmHg 92%
    01:00 +15°C° 0 mm 0 mps 609 mmHg 91%
    02:00 +15°C° 0 mm 0 mps 609 mmHg 91%
    03:00 +15°C° 0 mm 0 mps 609 mmHg 90%
    04:00 +15°C° 0 mm 0 mps 608 mmHg 89%
    05:00 +15°C° 0.1 mm 0 mps 609 mmHg 87%
    06:00 +15°C° 0.1 mm 0 mps 609 mmHg 84%
    07:00 +16°C° 0.1 mm 0 mps 609 mmHg 82%
    08:00 +20°C° 0.3 mm 1 mps 610 mmHg 76%
    09:00 +21°C° 0.3 mm 1 mps 611 mmHg 69%
    10:00 +23°C° 0.3 mm 1 mps 612 mmHg 63%
    11:00 +23°C° 1 mm 1 mps 611 mmHg 63%
    12:00 +23°C° 1 mm 1 mps 611 mmHg 64%
    13:00 +23°C° 1 mm 1 mps 610 mmHg 64%
    14:00 +23°C° 1.6 mm 1 mps 610 mmHg 67%
    15:00 +21°C° 1.6 mm 2 mps 609 mmHg 70%
    16:00 +21°C° 1.6 mm 2 mps 609 mmHg 74%
    17:00 +20°C° 1.5 mm 2 mps 609 mmHg 80%
    18:00 +18°C° 1.5 mm 2 mps 608 mmHg 86%
    19:00 +17°C° 1.5 mm 2 mps 608 mmHg 92%
    20:00 +18°C° 0.5 mm 1 mps 609 mmHg 93%
    21:00 +18°C° 0.5 mm 1 mps 609 mmHg 93%
    22:00 +18°C° 0.5 mm 1 mps 609 mmHg 94%
    23:00 +18°C° 0.9 mm 1 mps 609 mmHg 94%

    Tomorrow, 22 January, Tuesday

    Time Temperature Precipitation Wind Pressure Humidity
    00:00 +16°C° 0.9 mm 1 mps 609 mmHg 94%
    01:00 +16°C° 0.9 mm 1 mps 609 mmHg 94%
    02:00 +16°C° 0.3 mm 1 mps 608 mmHg 95%
    03:00 +16°C° 0.3 mm 1 mps 608 mmHg 95%
    04:00 +16°C° 0.3 mm 1 mps 608 mmHg 96%
    05:00 +16°C° 0.1 mm 1 mps 608 mmHg 95%
    06:00 +16°C° 0.1 mm 1 mps 609 mmHg 94%
    07:00 +15°C° 0.1 mm 0 mps 609 mmHg 93%
    08:00 +19°C° 0.6 mm 1 mps 610 mmHg 86%
    09:00 +21°C° 0.6 mm 1 mps 610 mmHg 79%
    10:00 +22°C° 0.6 mm 1 mps 611 mmHg 72%
    11:00 +22°C° 1.1 mm 1 mps 611 mmHg 71%
    12:00 +22°C° 1.1 mm 1 mps 610 mmHg 71%
    13:00 +22°C° 1.1 mm 1 mps 610 mmHg 71%
    14:00 +22°C° 1.3 mm 1 mps 609 mmHg 71%
    15:00 +22°C° 1.3 mm 1 mps 609 mmHg 70%
    16:00 +22°C° 1.3 mm 1 mps 609 mmHg 70%
    17:00 +20°C° 0.8 mm 2 mps 608 mmHg 77%
    18:00 +18°C° 0.8 mm 2 mps 608 mmHg 84%
    19:00 +17°C° 0.8 mm 2 mps 608 mmHg 91%
    20:00 +17°C° 0.6 mm 2 mps 608 mmHg 92%
    21:00 +16°C° 0.6 mm 1 mps 609 mmHg 93%
    22:00 +16°C° 0.6 mm 1 mps 609 mmHg 94%
    23:00 +16°C° 0.1 mm 1 mps 609 mmHg 94%

    Day after tomorrow, 23 January, Wednesday

    Time Temperature Precipitation Wind Pressure Humidity
    00:00 +16°C° 0.1 mm 1 mps 609 mmHg 93%
    01:00 +15°C° 0.1 mm 1 mps 609 mmHg 93%
    02:00 +15°C° 0.3 mm 1 mps 608 mmHg 92%
    03:00 +15°C° 0.3 mm 1 mps 608 mmHg 92%
    04:00 +15°C° 0.3 mm 1 mps 607 mmHg 91%
    05:00 +15°C° 0 mm 1 mps 608 mmHg 90%
    06:00 +16°C° 0 mm 1 mps 608 mmHg 88%
    07:00 +16°C° 0 mm 1 mps 608 mmHg 86%
    08:00 +19°C° 0 mm 1 mps 609 mmHg 75%
    09:00 +22°C° 0 mm 1 mps 611 mmHg 65%
    10:00 +24°C° 0 mm 1 mps 612 mmHg 54%
    11:00 +25°C° 0.1 mm 2 mps 611 mmHg 50%
    12:00 +26°C° 0.1 mm 2 mps 611 mmHg 47%
    13:00 +27°C° 0.1 mm 2 mps 610 mmHg 43%
    14:00 +26°C° 0.1 mm 2 mps 609 mmHg 48%
    15:00 +24°C° 0.1 mm 2 mps 608 mmHg 53%
    16:00 +23°C° 0.1 mm 2 mps 607 mmHg 57%
    17:00 +21°C° 0 mm 2 mps 607 mmHg 61%
    18:00 +19°C° 0 mm 2 mps 607 mmHg 65%
    19:00 +18°C° 0 mm 2 mps 607 mmHg 68%
    20:00 +18°C° 0 mm 1 mps 607 mmHg 70%
    21:00 +16°C° 0 mm 1 mps 607 mmHg 72%
    22:00 +16°C° 0 mm 1 mps 608 mmHg 74%
    23:00 +15°C° 0 mm 1 mps 607 mmHg 74%

    24 January, Thursday

    Time Temperature Precipitation Wind Pressure Humidity
    00:00 +15°C° 0 mm 1 mps 607 mmHg 73%
    01:00 +15°C° 0 mm 1 mps 607 mmHg 73%
    02:00 +15°C° 0 mm 1 mps 606 mmHg 72%
    03:00 +14°C° 0 mm 0 mps 606 mmHg 72%
    04:00 +14°C° 0 mm 0 mps 606 mmHg 71%
    05:00 +15°C° 0 mm 0 mps 607 mmHg 69%
    06:00 +16°C° 0 mm 0 mps 607 mmHg 68%
    07:00 +16°C° 0 mm 0 mps 608 mmHg 66%
    08:00 +21°C° 0 mm 1 mps 609 mmHg 57%
    09:00 +23°C° 0 mm 1 mps 610 mmHg 49%
    10:00 +26°C° 0 mm 1 mps 611 mmHg 40%
    11:00 +27°C° 0 mm 1 mps 611 mmHg 37%
    12:00 +28°C° 0 mm 2 mps 610 mmHg 34%
    13:00 +29°C° 0 mm 2 mps 610 mmHg 32%
    14:00 +28°C° 0 mm 2 mps 609 mmHg 37%
    15:00 +26°C° 0 mm 1 mps 608 mmHg 42%
    16:00 +25°C° 0 mm 1 mps 607 mmHg 47%
    17:00 +23°C° 0 mm 1 mps 607 mmHg 51%
    18:00 +22°C° 0 mm 1 mps 607 mmHg 55%
    19:00 +21°C° 0 mm 1 mps 607 mmHg 59%
    20:00 +20°C° 0 mm 1 mps 607 mmHg 63%
    21:00 +19°C° 0 mm 1 mps 607 mmHg 67%
    22:00 +16°C° 0 mm 0 mps 607 mmHg 71%
    23:00 +16°C° 0 mm 0 mps 607 mmHg 73%

    25 January, Friday

    Time Temperature Precipitation Wind Pressure Humidity
    00:00 +16°C° 0 mm 0 mps 607 mmHg 74%
    01:00 +15°C° 0 mm 0 mps 607 mmHg 75%
    02:00 +16°C° 0 mm 0 mps 607 mmHg 73%
    03:00 +16°C° 0 mm 0 mps 607 mmHg 71%
    04:00 +17°C° 0 mm 0 mps 607 mmHg 68%
    05:00 +17°C° 0 mm 0 mps 607 mmHg 68%
    06:00 +17°C° 0 mm 0 mps 608 mmHg 67%
    07:00 +20°C° 0 mm 1 mps 608 mmHg 67%
    08:00 +22°C° 0 mm 1 mps 609 mmHg 58%
    09:00 +25°C° 0 mm 2 mps 610 mmHg 49%
    10:00 +27°C° 0 mm 2 mps 611 mmHg 40%
    11:00 +28°C° 0 mm 2 mps 611 mmHg 39%
    12:00 +29°C° 0 mm 2 mps 611 mmHg 37%
    13:00 +29°C° 0 mm 2 mps 610 mmHg 35%
    14:00 +28°C° 0 mm 2 mps 609 mmHg 40%
    15:00 +27°C° 0 mm 2 mps 608 mmHg 44%
    16:00 +25°C° 0 mm 1 mps 608 mmHg 49%
    17:00 +24°C° 0 mm 1 mps 608 mmHg 55%
    18:00 +22°C° 0 mm 1 mps 608 mmHg 61%
    19:00 +21°C° 0 mm 1 mps 608 mmHg 68%
    20:00 +20°C° 0 mm 1 mps 608 mmHg 71%
    21:00 +19°C° 0 mm 1 mps 608 mmHg 75%
    22:00 +18°C° 0 mm 1 mps 608 mmHg 79%
    23:00 +18°C° 0 mm 1 mps 608 mmHg 79%

    26 January, Saturday

    Time Temperature Precipitation Wind Pressure Humidity
    00:00 +18°C° 0 mm 1 mps 608 mmHg 80%
    01:00 +16°C° 0 mm 1 mps 608 mmHg 80%
    02:00 +16°C° 0 mm 1 mps 607 mmHg 80%
    03:00 +16°C° 0 mm 1 mps 607 mmHg 80%
    04:00 +16°C° 0 mm 1 mps 607 mmHg 80%
    05:00 +15°C° 0 mm 0 mps 608 mmHg 77%
    06:00 +16°C° 0 mm 0 mps 608 mmHg 75%
    07:00 +17°C° 0 mm 0 mps 609 mmHg 72%
    08:00 +22°C° 0 mm 1 mps 610 mmHg 63%
    09:00 +24°C° 0 mm 1 mps 612 mmHg 54%
    10:00 +27°C° 0 mm 1 mps 613 mmHg 45%
    11:00 +27°C° 0.1 mm 1 mps 612 mmHg 44%
    12:00 +28°C° 0.1 mm 1 mps 612 mmHg 43%
    13:00 +28°C° 0.1 mm 2 mps 611 mmHg 42%
    14:00 +26°C° 0.6 mm 2 mps 610 mmHg 50%
    15:00 +24°C° 0.6 mm 2 mps 609 mmHg 57%
    16:00 +21°C° 0.6 mm 2 mps 607 mmHg 65%
    17:00 +20°C° 0.2 mm 2 mps 608 mmHg 69%
    18:00 +19°C° 0.2 mm 2 mps 608 mmHg 72%
    19:00 +19°C° 0.2 mm 2 mps 608 mmHg 75%
    20:00 +18°C° 0 mm 2 mps 608 mmHg 78%
    21:00 +19°C° 0 mm 1 mps 609 mmHg 81%
    22:00 +18°C° 0 mm 1 mps 609 mmHg 83%
    23:00 +18°C° 0 mm 1 mps 608 mmHg 85%
    Show more